STARLINK-38370, 100519

Orbit data source: Space-Track

STARLINK-38370, 100519 is a payload satellite owned by SpaceX/Seattle (US) in LEO that was launched on Wed, 26 Aug 2026 UTC launched from the Air Force Western Test Range (AFWTR). Payload-class satellites include a variety of spacecraft equipped with specific instruments for various scientific and technological missions. These include communications satellites like Starlink; space stations such as the ISS; scientific satellites like the Hubble; Earth observation satellites from companies like Planet Labs, Umbra, and HawkEye 360; GPS; miniature CubeSats for education and research; and military/defense satellites.

Loading next visibility...
Identifier
100519, 2026-197T
Orbit
LEO
Country
Flag of USUS
Related business
Manufacturer
SpaceX/Seattle
Mission
Operational spacecraft
Bus & Motor
STARLINK V2MO, Unknown motor
Mass
575 kg wet, ~530 kg dry
Launch date (UTC)
2026-08-26 (2 weeks ago)
Launch vehicle
Unknown
Launch site
Air Force Western Test Range (AFWTR)
Object type
Payload
Rocket body
Debris
Shape & HBR
BOX + PAN, 17.7 m
Radar Cross Section
RCS unknown

Expand to show TLE details & history
Last TLE update: 13 hours ago

TLE from 13 hours ago
0 STARLINK-38370
1 A0519U 26197T   26251.24512715  .00366167  00000-0  16988-2 0  9996
2 A0519  69.9988 156.6249 0003487 274.1354  85.9449 15.82296715  2059
Epoch: 2026-09-08T05:52Z
TLE epoch observation values (Epoch: 2026-09-08T05:52:58.985Z)
Latitude
-0.00008°
Longitude
81.06479°
Altitude
326.296 km
Speed
7.713 km/s
True Right ascension
10h 26m 29s
True Declination
0° 00' 00"
Sunlit
Object was in daylight at epoch
Visualization orbit readout
Latitude
Unknown
Longitude
Unknown
Altitude
Unknown
Speed
Unknown
Apparent Right ascension
Unknown
Apparent Declination
Unknown
Sunlit
N/A
Visualization observer readout
Local Sidereal Time
10:46:57
Azimuth
Unknown
Elevation
Unknown
Doppler factor
Unknown
Orbital elements
Apogee altitude
324.156 km
Perigee altitude
319.483 km
Semi-major axis
6,699.957 km
Eccentricity
0.00035
Inclination
69.9988°
RAAN
156.6249°
Arg. of periapsis
274.1354°
True anomaly
85.98476°
Mean anomaly
85.9449°
Eccentric anomaly
85.96483°
Mean motion
3.95763 °/min
Orbital period
90.96 mins
BSTAR
0.0016988
Loading maneuver chart data...
Computing Atmospheric mass density...
Loading historical data...
Loading historical data...
Loading historical data...
Loading historical data...
Loading historical data...
Loading historical data...
Loading historical data...

Documentation

Showing up to 5 results
|